weather.gov     
National Weather Service

Terminal Aerodrome Forecast
NWS Homepage
This page is being discontinued on March 12, 2014.
The same data is available at this site. Please update your bookmarks.
Thank you, and we apologize for the inconvenience.
Please send an email to SR-SRH.Webmaster@noaa.gov with any concerns.


Current Version
Previous Version:    01  02  03  04  05  06  07  08  09  10  11  12  13  14  15  16  17  18  19  
[Printable]
943
FTUS45 KPUB 311127
TAFPUB
TAF
KPUB 311127Z 3112/0112 03006KT P6SM FEW250
     FM311700 09007KT P6SM SCT200
     FM311900 13009KT P6SM FEW150 SCT200
     FM010200 06006KT P6SM SCT150 SCT200
     FM010900 30006KT P6SM BKN150=


943
FTUS45 KPUB 311127
TAFPUB
TAF
KPUB 311127Z 3112/0112 03006KT P6SM FEW250
     FM311700 09007KT P6SM SCT200
     FM311900 13009KT P6SM FEW150 SCT200
     FM010200 06006KT P6SM SCT150 SCT200
     FM010900 30006KT P6SM BKN150=




U.S. Dept. of Commerce
NOAA National Weather Service
1325 East West Highway
Silver Spring, MD 20910
E-mail: w-nws.webmaster@noaa.gov
Page last modified: May 16, 2007
NATIONAL WEATHER SERVICE: for Safety, for Work, for Fun - FOR LIFE